ND5T-1 Weather Reports


Display with metric or nautical units.
time (UTC)temp
F
wind
direction
speed
MPH
gust
MPH
rain 1hr
in
rain 24hr
in
rain mn
in
humidity
%
barometer
mb
20260502170328 69 11 1.0 4.0 0.00 0.85 0.01 60 1021.0
20260502164326 68 122 1.0 3.0 0.00 0.99 0.01 61 1021.0
20260502163326 67 335 1.0 3.0 0.00 0.99 0.01 66 1021.2
20260502162326 67 161 1.0 4.0 0.00 0.99 0.01 71 1021.0
20260502161320 67 45 1.0 3.0 0.00 0.99 0.01 66 1021.1
20260502160319 66 116 1.0 2.0 0.00 0.99 0.01 71 1021.1
20260502152332 62 333 0.0 3.0 0.00 1.06 0.01 87 1021.0
20260502151350 62 350 0.0 2.0 0.00 1.06 0.01 89 1021.0
20260502150331 61 326 1.0 4.0 0.00 1.06 0.01 91 1021.2
20260502130318 53 178 0.0 0.0 0.00 1.85 0.01 97 1019.7
20260502123327 51 178 0.0 0.0 0.00 2.27 0.01 97 1019.2
20260502122348 51 178 0.0 0.0 0.00 2.27 0.01 97 1019.1
20260502121328 51 178 0.0 0.0 0.00 2.27 0.01 97 1019.1
20260502120349 51 178 0.0 0.0 0.01 2.27 0.01 97 1019.1
20260502115330 50 178 0.0 0.0 0.01 2.46 0.01 96 1018.9
20260502114350 51 177 0.0 0.0 0.01 2.46 0.01 96 1018.8
20260502113326 51 177 0.0 0.0 0.01 2.46 0.01 97 1018.7
20260502112334 51 177 0.0 0.0 0.01 2.46 0.01 97 1018.7
20260502111334 51 177 0.0 0.0 0.01 2.46 0.01 96 1018.4
20260502110333 51 177 0.0 0.0 0.00 2.45 0.00 96 1018.2
20260502105327 51 177 0.0 0.0 0.00 2.74 0.00 96 1018.1
20260502104327 51 177 0.0 0.0 0.00 2.74 0.00 96 1018.2
20260502103330 51 177 0.0 0.0 0.00 2.74 0.00 96 1018.1
20260502102348 51 177 0.0 0.0 0.00 2.74 0.00 96 1018.0
20260502101347 51 177 0.0 0.0 0.00 2.74 0.00 96 1017.7
20260502100327 51 177 0.0 0.0 0.00 2.74 0.00 96 1017.6
20260502091333 52 177 0.0 0.0 0.00 2.98 0.00 96 1016.7
20260502090334 52 177 0.0 0.0 0.00 2.98 0.00 96 1016.6
20260502071319 53 177 0.0 0.0 0.00 3.24 0.00 96 1016.7
20260502070321 54 177 0.0 0.0 0.00 3.24 0.00 96 1016.5
20260502065333 54 177 0.0 0.0 0.00 3.26 0.00 96 1016.5
20260502064332 54 177 0.0 0.0 0.00 3.26 0.00 96 1016.4
20260502063319 54 177 0.0 0.0 0.00 3.26 0.00 96 1016.2
20260502062317 54 177 0.0 0.0 0.00 3.26 0.00 97 1016.2
20260502061318 54 177 0.0 1.0 0.00 3.26 0.00 96 1016.4
20260502060318 54 177 0.0 1.0 0.00 3.26 0.00 96 1016.3
20260502055351 54 177 0.0 3.0 0.00 3.46 0.00 96 1016.4
20260502054331 54 177 0.0 3.0 0.00 3.46 0.00 96 1016.4
20260502053330 54 12 0.0 0.0 0.00 3.46 0.00 97 1016.5
20260502052332 54 12 0.0 3.0 0.00 3.46 0.00 97 1016.5
20260502051353 54 218 0.0 1.0 0.00 3.46 0.00 96 1016.4
20260502050400 54 218 0.0 1.0 0.00 3.46 0.00 96 1016.5
20260502045332 54 218 0.0 3.0 0.00 3.48 3.46 97 1016.3
20260502044333 55 286 0.0 3.0 0.00 3.48 3.46 97 1016.2
20260502043333 55 5 0.0 1.0 0.00 3.48 3.46 97 1016.3
20260502042334 55 5 0.0 2.0 0.00 3.48 3.46 97 1016.5
20260502041355 55 5 0.0 1.0 0.00 3.48 3.46 97 1016.5
20260502040332 55 5 0.0 2.0 0.00 3.48 3.46 97 1016.3
20260502035326 55 5 0.0 3.0 0.00 3.48 3.46 97 1016.2
20260502034327 55 5 0.0 2.0 0.00 3.48 3.46 97 1016.1
20260502033348 55 5 0.0 2.0 0.01 3.48 3.46 97 1016.1
20260502032328 55 308 0.0 1.0 0.03 3.48 3.46 97 1015.8
20260502031325 55 308 0.0 2.0 0.05 3.48 3.46 97 1015.5
20260502030324 56 293 0.0 1.0 0.07 3.48 3.46 97 1015.0
20260502025336 56 293 0.0 2.0 0.09 3.48 3.46 97 1015.2
20260502024336 56 355 0.0 1.0 0.14 3.48 3.46 97 1015.1
20260502023336 56 355 0.0 1.0 0.15 3.47 3.45 97 1014.8
20260502022316 56 355 0.0 2.0 0.15 3.45 3.43 97 1015.2
20260502021319 56 355 0.0 0.0 0.13 3.43 3.41 97 1015.0
20260502020319 56 355 0.0 1.0 0.12 3.41 3.39 97 1014.7
20260502015333 56 355 0.0 1.0 0.11 3.39 3.37 97 1014.4
20260502014334 56 355 0.0 2.0 0.08 3.34 3.32 97 1013.9
20260502013335 56 334 0.0 1.0 0.06 3.32 3.30 96 1014.5
20260502012317 56 334 0.0 2.0 0.06 3.30 3.28 97 1014.3
20260502011319 56 336 1.0 3.0 0.09 3.30 3.28 96 1013.3
20260502010334 57 102 0.0 2.0 0.09 3.29 3.27 96 1013.0
20260502005326 57 105 0.0 2.0 0.10 3.28 3.26 96 1013.1
20260502004327 58 115 0.0 1.0 0.10 3.26 3.24 97 1013.8
20260502003329 58 115 0.0 1.0 0.12 3.26 3.24 97 1013.2
20260502002327 58 115 0.0 0.0 0.15 3.23 3.21 97 1013.0
20260502001329 58 115 0.0 2.0 0.16 3.21 3.19 97 1012.5
20260502000332 58 116 0.0 2.0 0.15 3.20 3.18 97 1012.4
20260501235342 58 116 0.0 2.0 0.13 3.18 3.16 97 1012.5
20260501234323 58 117 0.0 1.0 0.11 3.16 3.14 96 1012.5
20260501233325 58 117 0.0 3.0 0.10 3.14 3.12 96 1012.5
20260501232325 58 206 0.0 1.0 0.04 3.08 3.06 97 1012.4
20260501231321 58 229 1.0 3.0 0.02 3.05 3.03 97 1012.7
20260501230321 58 101 0.0 2.0 0.03 3.05 3.03 97 1010.7
20260501225327 58 99 0.0 3.0 0.05 3.05 3.03 96 1011.0
20260501224327 59 59 1.0 4.0 0.06 3.05 3.03 96 1011.1
20260501223328 59 76 0.0 1.0 0.05 3.04 3.02 96 1011.0
20260501222329 59 346 0.0 1.0 0.06 3.04 3.02 97 1012.0
20260501221327 59 346 0.0 1.0 0.06 3.03 3.01 97 1012.5
20260501220328 59 346 0.0 2.0 0.06 3.02 3.00 97 1012.6
20260501215318 59 5 0.0 2.0 0.06 3.00 2.98 96 1012.1
20260501214320 59 5 0.0 1.0 0.08 2.99 2.97 96 1012.5
20260501213321 59 5 0.0 2.0 0.10 2.99 2.97 97 1011.7
20260501212323 59 5 0.0 1.0 0.12 2.98 2.96 96 1010.9
20260501211322 59 142 1.0 3.0 0.11 2.97 2.95 97 1010.6
20260501210322 60 167 0.0 1.0 0.11 2.96 2.94 97 1011.4
20260501205334 60 167 0.0 2.0 0.11 2.94 2.92 96 1011.1
20260501204331 60 169 0.0 2.0 0.08 2.91 2.89 97 1011.2
20260501203331 60 156 0.0 1.0 0.07 2.89 2.87 97 1011.3
20260501202333 61 201 0.0 1.0 0.06 2.86 2.84 97 1011.4
20260501201331 61 11 0.0 2.0 0.10 2.86 2.84 97 1010.7
20260501200335 60 11 0.0 2.0 0.12 2.85 2.83 97 1010.6
20260501195329 61 11 0.0 1.0 0.13 2.83 2.81 97 1010.6
20260501194330 61 11 0.0 1.0 0.14 2.83 2.81 97 1010.6
20260501193329 60 11 1.0 3.0 0.14 2.82 2.80 97 1009.6
20260501192324 60 125 0.0 1.0 0.12 2.80 2.78 97 1010.0
20260501191349 60 125 0.0 1.0 0.09 2.76 2.74 97 1009.9
20260501190331 61 125 0.0 1.0 0.06 2.73 2.71 97 1010.4
20260501185319 60 125 0.0 2.0 0.04 2.70 2.68 97 1010.2
20260501184320 61 125 0.0 3.0 0.03 2.69 2.67 97 1009.3
20260501183323 61 169 0.0 2.0 0.02 2.68 2.66 97 1009.5
20260501182325 61 141 1.0 3.0 0.02 2.68 2.66 97 1009.2
20260501181347 61 99 0.0 1.0 0.01 2.67 2.65 97 1010.0
20260501180346 61 351 0.0 3.0 0.02 2.67 2.65 97 1010.2
20260501175330 61 162 0.0 2.0 0.03 2.67 2.64 97 1010.9
20260501174332 61 36 0.0 3.0 0.06 2.67 2.64 97 1011.1
20260501173331 61 355 0.0 2.0 0.10 2.67 2.64 97 1011.3
20260501172332 61 355 0.0 1.0 0.13 2.67 2.64 97 1011.5